TimeCDT,TemperatureF,Dew PointF,Humidity,Sea Level PressureIn,VisibilityMPH,Wind Direction,Wind SpeedMPH,Gust SpeedMPH,PrecipitationIn,Events,Conditions,WindDirDegrees,DateUTC
12:56 AM,62.6,60.6,93,30.08,10.0,NNE,3.5,-,N/A,,Clear,20,2012-10-10 05:56:00
1:57 AM,61.5,59.9,94,30.08,5.0,North,4.6,-,N/A,,Clear,10,2012-10-10 06:57:00
2:55 AM,60.8,59.4,95,30.08,5.0,North,4.6,-,N/A,,Clear,360,2012-10-10 07:55:00
3:56 AM,59.9,58.6,96,30.09,4.0,NW,3.5,-,N/A,,Clear,320,2012-10-10 08:56:00
4:59 AM,59.0,57.9,96,30.11,4.0,North,4.6,-,N/A,,Clear,350,2012-10-10 09:59:00
5:55 AM,58.3,57.2,96,30.12,4.0,NE,2.3,-,N/A,,Clear,40,2012-10-10 10:55:00
6:56 AM,57.6,56.5,96,30.14,5.0,North,4.6,-,N/A,,Partly Cloudy,350,2012-10-10 11:56:00
7:29 AM,59.0,57.2,94,30.14,5.0,North,2.3,-,N/A,,Partly Cloudy,10,2012-10-10 12:29:00
7:56 AM,62.2,59.0,89,30.15,5.0,North,2.3,-,N/A,,Clear,10,2012-10-10 12:56:00
8:55 AM,67.3,60.3,78,30.16,7.0,NNW,4.6,-,N/A,,Clear,340,2012-10-10 13:55:00
9:55 AM,73.6,59.0,60,30.17,7.0,North,4.6,-,N/A,,Clear,350,2012-10-10 14:55:00
11:55 AM,80.2,56.3,44,30.15,10.0,North,11.5,-,N/A,,Clear,10,2012-10-10 16:55:00
12:55 PM,81.0,57.7,45,30.13,10.0,North,8.1,-,N/A,,Clear,10,2012-10-10 17:55:00
1:55 PM,83.1,57.7,42,30.10,10.0,North,9.2,-,N/A,,Clear,360,2012-10-10 18:55:00
2:55 PM,83.5,57.7,41,30.09,10.0,NNW,10.4,-,N/A,,Partly Cloudy,340,2012-10-10 19:55:00
3:56 PM,83.7,58.5,42,30.08,10.0,NNW,8.1,-,N/A,,Partly Cloudy,330,2012-10-10 20:56:00
4:56 PM,83.1,59.4,44,30.09,10.0,North,8.1,-,N/A,,Partly Cloudy,350,2012-10-10 21:56:00
5:58 PM,79.7,61.0,53,30.10,10.0,North,9.2,-,N/A,,Partly Cloudy,10,2012-10-10 22:58:00
6:57 PM,74.8,61.0,62,30.12,10.0,NNE,5.8,-,N/A,,Partly Cloudy,20,2012-10-10 23:57:00
7:58 PM,72.1,61.2,68,30.13,10.0,NNE,4.6,-,N/A,,Clear,20,2012-10-11 00:58:00
8:57 PM,70.3,61.0,72,30.14,10.0,North,3.5,-,N/A,,Clear,360,2012-10-11 01:57:00
9:57 PM,67.8,61.0,79,30.17,10.0,North,4.6,-,N/A,,Clear,360,2012-10-11 02:57:00
10:57 PM,66.4,60.8,82,30.16,10.0,North,4.6,-,N/A,,Clear,350,2012-10-11 03:57:00
11:58 PM,64.8,60.1,85,30.16,10.0,North,2.3,-,N/A,,Clear,350,2012-10-11 04:58:00